Location: Karwodrza
(49.9217°N, 21.0454°E)
Time: 14:10:44
(UTC+01:00)

ISS - Pass Details

Date: 30 January 2019
Orbit: 403 x 411 km, 51.6° (Epoch: 16 February)

Event Time Altitude Azimuth Distance (km) Brightness Sun altitude
Rises 17:26:12 0° 257° (WSW) 2,330 2.4 -9.8°
Reaches altitude 10° 17:28:17 10° 259° (W) 1,472 0.6 -10.1°
Maximum altitude 17:31:35 79° 346° (NNW) 422 -3.8 -10.6°
Enters shadow 17:33:58 18° 73° (ENE) 1,101 -2.3 -11.0°
